Location: Chorzewa
(50.6886°N, 20.2317°E)
Time: 12:04:54
(UTC+00:00)

Daily predictions for brighter satellites

Satellite Brightness Start Highest point End
(mag) Time Altitude Azimuth Time Altitude Azimuth Time Altitude Azimuth
ERS-1 Rocket 4.5 18:12:27 10° ESE 18:16:05 20° ENE 18:19:43 10° N
Cosmos 1300 Rocket 3.6 18:11:57 10° S 18:16:19 87° ESE 18:20:47 10° N
USA 234 3.5 18:12:26 10° SE 18:18:57 70° SW 18:25:30 10° WNW
USA 281 3.4 18:13:39 10° SE 18:20:07 63° NE 18:26:37 10° NNW
NOSS 3-1 (C) 3.1 18:18:34 10° SW 18:23:33 78° SE 18:29:38 10° NE
Cosmos 2344 4.3 18:17:12 10° WSW 18:24:22 54° NNW 18:31:59 10° NE
Cosmos 2227 Rocket 3.6 18:20:38 10° NNW 18:25:23 26° NE 18:30:08 10° E
Cosmos 2151 Rocket 4.3 18:21:46 10° SSE 18:25:40 32° E 18:29:38 10° NNE
ATLAS CENTAUR R/B 3.2 18:28:33 10° NNW 18:31:10 18° NNE 18:33:52 10° ENE
CSL-04 Debris 4.3 18:26:06 10° SSE 18:31:32 82° WSW 18:37:03 10° NNW
ATLAS 3B R/B 2.9 18:30:11 10° SSW 18:37:10 62° SE 18:44:39 10° NE
Cosmos 371 Rocket 3.3 18:32:56 10° NNW 18:37:44 68° ENE 18:42:31 10° SSE
Cosmos 1697 Rocket 4.4 18:37:20 11° ESE 18:39:01 13° E 18:41:19 10° ENE
COSMOS 2455 3.4 18:33:46 10° NNW 18:39:36 46° NE 18:44:51 13° ESE
SL-4 R/B 1.7 18:36:12 10° W 18:39:53 78° N 18:43:07 12° E
CSL-04 Rocket 3.9 18:34:32 10° S 18:40:03 76° WSW 18:45:31 10° NNW
Iridium 2 4.0 18:37:44 10° NNE 18:40:22 29° ENE 18:42:18 15° SE
Cosmos 1777 Rocket 4.1 18:35:14 10° NNW 18:40:30 64° ENE 18:45:33 11° SE
Cosmos 304 Rocket 3.9 18:37:00 10° NNW 18:41:45 61° ENE 18:46:06 12° SE
Okean 2 Rocket 3.3 18:43:20 10° SSE 18:47:40 49° E 18:52:01 10° NNE
Cosmos 1992 Rocket 4.5 18:44:55 10° SW 18:50:06 66° WNW 18:55:20 10° NNE
CZ-4C R/B 3.4 18:43:55 10° NW 18:50:22 51° NE 18:57:31 13° ESE
SPOT 5 3.3 18:46:55 11° SE 18:51:49 53° ENE 18:56:53 10° N
Cosmos 2297 Rocket 2.4 18:48:42 10° NNW 18:54:19 58° NE 18:58:47 16° SE
Cosmos 1503 Rocket 4.2 18:52:40 10° NNW 18:58:04 81° WSW 19:03:17 11° SSE
Cosmos 2369 Rocket 4.2 18:54:06 10° WSW 18:59:09 32° NW 19:04:12 10° NNE
Cosmos 405 Rocket 4.3 18:59:06 16° E 18:59:37 17° E 19:02:02 10° NE
Spot 2 Rocket 4.3 18:56:18 16° ESE 18:59:41 34° ENE 19:04:13 10° N
Cosmos 1354 Rocket 4.0 18:55:36 10° NNW 19:00:59 85° ENE 19:05:34 14° SSE
Cosmos 1656 4.0 18:56:39 10° S 19:01:51 42° ESE 19:07:00 10° NE
BlueWalker 3 2.5 18:59:20 10° SSW 19:02:51 36° SE 19:06:06 12° E
Terra 2.5 19:01:26 18° SE 19:04:26 37° ENE 19:08:49 10° N
ATLAS 5 CENTAUR R/B 1.9 19:03:44 10° WSW 19:07:05 53° NW 19:10:54 10° NE
Cosmos 2219 4.4 19:03:53 10° NNW 19:08:51 30° NE 19:12:38 15° E
Cosmos 2098 Rocket 4.4 19:04:35 10° SSW 19:08:56 40° WNW 19:12:34 10° N
Iridium 4 Rocket 3.9 19:04:24 10° SSE 19:09:47 57° E 19:15:31 10° N
Cosmos 332 Rocket 4.1 19:05:26 10° NNW 19:10:13 54° ENE 19:13:17 21° SE
Cosmos 1455 Rocket 4.3 19:09:46 21° ESE 19:11:10 24° E 19:14:43 10° NE
Okean 1 Rocket 3.2 19:06:57 10° S 19:11:11 53° E 19:15:33 10° NNE
Sich 1 Rocket 3.5 19:06:48 10° S 19:11:12 83° E 19:15:41 10° NNE
USA 245 4.0 19:09:42 19° SE 19:13:14 52° ENE 19:17:22 10° N
Okean-O 3.0 19:11:17 10° S 19:15:39 63° WSW 19:20:04 10° NNW
NOSS 8 (F) 4.3 19:15:47 10° NW 19:18:50 76° NE 19:20:28 29° SE
Ariane Rocket 3.4 19:16:23 22° SE 19:19:25 48° ENE 19:24:17 10° N
Cosmos 1763 Rocket 4.1 19:17:53 20° SSE 19:20:31 32° ESE 19:25:04 10° NE
CZ-4C R/B 3.0 19:17:10 10° NNE 19:20:36 79° WNW 19:23:57 10° SSW
Cosmos 2263 Rocket 3.6 19:16:06 10° NNW 19:20:50 27° NE 19:24:25 15° E
Nadezhda 3 Rocket 4.4 19:17:10 10° SSW 19:23:17 66° WNW 19:29:28 10° N
Cosmos 1437 Rocket 3.4 19:20:24 10° N 19:24:06 39° ENE 19:25:29 29° ESE
USA 267 3.6 19:17:59 10° ENE 19:24:30 71° NNW 19:31:01 10° WSW
Genesis I 3.8 19:21:35 10° NW 19:25:03 44° SW 19:26:55 23° S
Cosmos 44 3.8 19:21:22 10° SSW 19:26:30 46° ESE 19:31:34 10° NE
BREEZE-M R/B 2.5 19:25:14 10° W 19:27:33 36° SSW 19:27:40 36° SSW
Cosmos 990 Rocket 4.0 19:23:53 10° NNW 19:29:03 64° ENE 19:31:51 27° SE
Cosmos 1605 Rocket 4.0 19:23:29 10° N 19:29:55 74° ENE 19:34:28 20° SSE
Okean O Rocket 3.6 19:27:06 10° SSW 19:30:43 25° W 19:34:24 10° NW
Aureole 1 Rocket 2.8 19:31:14 10° N 19:34:04 37° ENE 19:34:29 35° E
Cosmos 540 Rocket 4.1 19:39:04 30° SE 19:40:26 35° ESE 19:45:03 10° NE
Resurs 01 Rocket 4.1 19:42:33 10° SW 19:45:41 19° W 19:48:50 10° NW
MOS 1 Rocket 3.6 19:46:11 34° ESE 19:47:28 45° ENE 19:51:40 10° N
Intercosmos 25 4.4 19:43:49 10° N 19:48:14 31° ENE 19:49:01 29° E
Cosmos 2058 3.3 19:45:57 10° N 19:49:50 43° ENE 19:50:33 39° ESE
CENTAUR R/B 3.5 19:43:49 10° NW 19:51:39 63° NE 19:57:39 23° ESE
Cosmos 468 Rocket 4.4 19:51:31 34° SE 19:52:54 42° ESE 19:57:47 10° NE
NOSS 3-1 (A) 3.7 19:48:42 10° WSW 19:53:48 61° NW 20:00:04 10° NE
ERS-1 Rocket 3.1 19:51:26 26° S 19:54:20 73° WSW 19:59:22 10° NNW
SPOT 3 Rocket 3.5 19:55:09 32° SSE 19:57:40 87° ENE 20:02:53 10° NNW
Cosmos 546 4.4 19:55:27 10° W 19:59:13 83° S 19:59:52 59° ESE
USA 229 DEB 3.4 19:56:21 10° SSW 20:02:30 74° SE 20:09:20 10° NE
USA 229 3.4 19:56:27 10° SSW 20:02:36 73° SE 20:09:25 10° NE
Landsat 5 3.6 20:02:30 10° NNE 20:06:40 52° E 20:06:58 51° ESE
Cosmos 2100 Rocket 4.2 20:00:48 10° N 20:07:04 56° ENE 20:09:32 36° SE
Cosmos 1727 Rocket 4.0 20:04:27 32° SSE 20:07:23 61° E 20:13:31 10° NNE
ATLAS CENTAUR R/B 1.0 20:05:44 10° NW 20:09:30 78° NE 20:09:58 66° ESE
Cosmos 2227 Rocket 2.2 20:04:21 10° NNW 20:10:04 78° WSW 20:12:21 38° SSE
Cosmos 1544 Rocket 4.2 20:12:25 37° E 20:12:25 37° E 20:16:14 10° NNE
Cosmos 1980 Rocket 3.0 20:13:32 32° E 20:13:32 32° E 20:18:15 10° NE
Cosmos 1892 Rocket 4.0 20:12:24 10° NNW 20:16:39 55° W 20:18:10 35° SSW
Cosmos 292 Rocket 3.7 20:12:40 10° NNW 20:17:26 71° ENE 20:18:28 52° SE
H-2A R/B 4.0 20:18:14 21° ENE 20:18:14 21° ENE 20:21:04 10° NNE
SL-4 R/B 2.4 20:15:10 10° W 20:17:57 40° WSW 20:17:57 40° WSW
Cosmos 1697 Rocket 2.6 20:18:57 29° SSW 20:21:56 71° ESE 20:27:35 10° NNE
Cosmos 1937 Rocket 3.6 20:16:56 10° NNW 20:22:16 66° ENE 20:23:39 47° ESE
Cosmos 2360 4.1 20:17:26 10° SSW 20:23:08 89° WNW 20:28:52 10° NNE
COSMOS 2455 3.5 20:19:50 10° NW 20:25:34 46° WSW 20:27:59 31° SSW
Okean 1-7 Rocket 4.1 20:22:03 10° N 20:26:26 45° ENE 20:26:45 45° E
ATLAS 3B R/B 3.8 20:21:11 10° WSW 20:28:15 50° NNW 20:35:44 10° NE
MetOp-A 3.2 20:30:40 71° SW 20:30:51 73° WSW 20:34:40 10° NNW
Cosmos 1602 Rocket 3.9 20:29:56 10° N 20:34:11 49° ENE 20:34:13 49° ENE
Cosmos 405 Rocket 3.6 20:33:26 34° WSW 20:34:31 45° WNW 20:38:06 10° N
Cosmos 1758 Rocket 3.7 20:30:27 10° N 20:34:51 56° ENE 20:35:01 55° E
Cosmos 1898 Rocket 3.5 20:29:36 10° NNW 20:34:52 78° WSW 20:36:04 54° S
Cosmos 2228 3.6 20:38:16 41° ENE 20:38:16 41° ENE 20:41:37 10° NNE
Cosmos 2297 Rocket 3.7 20:33:16 10° NW 20:38:01 28° WSW 20:40:36 20° SW
Spot 2 Rocket 4.5 20:36:25 27° SSW 20:38:34 40° W 20:43:19 10° NNW
CZ-4C R/B 3.2 20:32:14 10° NW 20:39:14 63° SW 20:42:37 37° S
ARIANE 5 R/B 3.1 20:39:49 47° E 20:40:03 47° ENE 20:44:23 10° N
USA 81 4.1 20:38:46 42° SSW 20:40:35 77° W 20:45:54 10° N
BlueWalker 3 2.1 20:37:07 10° WSW 20:40:37 69° WNW 20:40:37 69° WNW
Terra 3.2 20:40:08 23° SW 20:42:06 32° W 20:46:21 10° NNW
NOSS 3-2 (C) 4.5 20:35:20 10° NW 20:42:09 53° NE 20:47:07 24° E
Meteor 2-13 Rocket 4.3 20:43:01 43° S 20:45:12 85° E 20:51:24 10° NNE
Cosmos 2369 4.1 20:45:58 43° E 20:45:58 43° E 20:50:59 10° NE
Meteor 2-1 Rocket 4.0 20:45:48 52° S 20:47:13 85° E 20:52:46 10° NNE
Cosmos 1455 Rocket 4.2 20:46:46 26° SW 20:48:43 40° WNW 20:52:53 10° N
Cosmos 1725 Rocket 4.0 20:42:50 10° N 20:49:01 66° ENE 20:50:29 51° SE
Cosmos 2233 Rocket 4.4 20:43:27 10° N 20:49:25 47° ENE 20:50:44 41° ESE
Cosmos 1459 Rocket 3.9 20:44:14 10° N 20:50:19 84° W 20:52:04 49° S
ATLAS 5 CENTAUR R/B 4.2 20:49:20 10° WNW 20:51:55 17° NNW 20:54:48 10° NNE
Cosmos 1825 Rocket 4.5 20:49:09 10° N 20:52:59 37° ENE 20:52:59 37° ENE
Cosmos 2219 3.3 20:47:49 10° NW 20:53:25 64° WSW 20:54:33 52° SSW
Cosmos 2061 Rocket 4.2 20:49:12 10° N 20:55:35 58° ENE 20:57:03 48° ESE
ALOS 2 4.1 20:58:36 26° ENE 20:58:39 26° ENE 21:02:18 10° N
Cosmos 858 Rocket 4.4 20:56:59 10° NNW 21:02:17 78° WSW 21:02:52 69° S
Cosmos 2263 Rocket 2.1 20:59:43 10° NNW 21:05:21 75° WSW 21:06:06 64° S
Cosmos 1862 4.0 21:02:28 10° N 21:05:30 46° NNE 21:05:30 46° NNE
USA 267 4.0 21:00:49 10° ENE 21:07:08 52° N 21:13:26 10° WNW
Cosmos 2082 3.6 21:06:11 10° NNW 21:11:49 69° WSW 21:12:29 62° SSW
Cosmos 2173 Rocket 4.4 21:08:49 10° NNW 21:15:02 56° W 21:17:01 40° SW
Cosmos 1271 Rocket 4.2 21:12:04 10° N 21:14:33 30° NE 21:14:33 30° NE
NOSS 3-2 (A) 4.0 21:10:04 10° NW 21:17:22 80° SW 21:19:58 49° SSE
Meteor 2-3 Rocket 3.9 21:13:04 10° NNW 21:18:41 62° W 21:19:41 53° SW
Cosmos 2333 Rocket 4.5 21:21:48 11° E 21:21:48 11° E 21:22:11 10° ENE
Cosmos 2322 Rocket 4.1 21:22:12 16° E 21:22:12 16° E 21:24:22 10° ENE
Cosmos 1606 3.9 21:23:39 39° NNW 21:23:39 39° NNW 21:26:17 10° N
Spot 4 3.9 21:30:18 68° NE 21:30:18 68° NE 21:34:53 10° N
Meteor 2-19 Rocket 4.4 21:32:04 64° SE 21:32:35 67° E 21:38:38 10° NNE
SL-16 R/B 3.1 21:41:08 34° E 21:41:08 34° E 21:45:13 10° NE
Cosmos 1844 4.3 21:34:53 10° NNW 21:40:29 49° NE 21:41:36 43° E
USA 238 DEB 4.2 21:34:56 10° NW 21:42:05 63° NE 21:45:34 34° ESE
USA 238 4.2 21:35:02 10° NW 21:42:11 62° NE 21:45:42 34° ESE
CENTAUR R/B 3.6 21:34:36 10° NW 21:42:34 53° WSW 21:44:48 44° SSW
Cosmos 1953 Rocket 4.1 21:38:32 10° N 21:42:01 53° NNE 21:42:01 53° NNE
Cosmos 841 Rocket 4.0 21:43:35 46° W 21:44:36 53° WNW 21:49:38 10° NNE
Cosmos 2016 Rocket 4.3 21:38:53 10° NNW 21:44:48 53° W 21:45:55 47° SW
ATLAS CENTAUR R/B 3.9 21:44:40 10° W 21:45:04 11° W 21:45:04 11° W
Cosmos 1844 Rocket 2.9 21:44:23 10° NNW 21:49:58 61° NE 21:50:30 58° E
Cosmos 1125 Rocket 3.8 21:46:16 10° NNW 21:51:27 57° ENE 21:51:35 57° ENE
H-2A R/B 3.9 21:54:16 30° NW 21:54:16 30° NW 21:56:35 10° NNW
Cosmos 2227 Rocket 4.3 21:50:17 10° WNW 21:53:09 14° W 21:54:10 14° WSW
Cosmos 1980 Rocket 2.8 21:55:13 37° WSW 21:57:05 52° NW 22:02:38 10° NNE
Timation 2 Rocket 4.4 21:55:10 10° NNW 22:01:45 58° NE 22:03:23 46° E
Cosmos 2278 3.7 22:02:49 68° E 22:02:49 68° E 22:08:04 10° NNE
Cosmos 1697 Rocket 4.5 22:01:34 10° WSW 22:06:25 28° NW 22:11:18 10° NNE
Cosmos 2151 3.9 22:03:31 10° NNW 22:06:35 46° NNW 22:06:35 46° NNW
ARIANE 5 R/B 4.5 22:17:17 23° W 22:17:17 23° W 22:20:18 10° NW
Cosmos 2237 4.1 22:29:24 85° ENE 22:29:24 85° ENE 22:35:01 10° NNE
H-2A R/B 3.0 22:27:54 10° NNE 22:30:48 43° NNE 22:30:48 43° NNE
Lacrosse 4 Rocket 2.7 22:33:41 37° N 22:33:41 37° N 22:36:27 10° NNE
Cosmos 2150 Rocket 4.1 22:27:52 10° NNW 22:32:46 70° NE 22:32:46 70° NE
NOSS 3-2 (C) 4.1 22:26:10 10° NW 22:33:27 61° SW 22:34:32 56° SSW
ALOS 2 3.9 22:35:59 34° WNW 22:35:59 34° WNW 22:39:00 10° NNW
Cosmos 2298 Rocket 4.1 22:31:30 10° NNW 22:36:37 76° NNE 22:36:37 76° NNE
ATLAS 5 CENTAUR R/B 4.4 22:34:37 10° NNW 22:37:25 17° NNE 22:40:33 10° NE
Helios 1A Rocket 4.4 22:44:37 31° NE 22:44:37 31° NE 22:47:29 10° N
Cosmos 1464 Rocket 3.9 22:38:04 10° NNW 22:44:28 81° W 22:44:59 75° SSW
Cosmos-2242 4.1 22:46:33 40° NE 22:46:33 40° NE 22:49:26 10° NNE
Cosmos 2058 Rocket 4.0 22:47:28 44° NNW 22:47:28 44° NNW 22:50:47 10° N
Cosmos 2263 Rocket 4.3 22:45:42 10° WNW 22:47:47 13° W 22:47:47 13° W
USA 267 3.6 22:43:14 10° E 22:49:42 65° NNE 22:56:11 10° WNW
Cosmos 2360 Rocket 2.4 22:51:06 60° E 22:51:06 60° E 22:56:14 10° NE
Cosmos 2344 4.5 22:49:25 10° NW 22:57:07 54° NNE 23:07:13 10° ESE
Cosmos 1867 4.2 22:52:47 10° NW 22:58:10 52° NE 22:59:55 37° E
Meteor 2-21 4.3 22:58:06 74° SW 22:58:35 81° W 23:04:51 10° N
Aureole 3 Rocket 4.1 22:54:52 10° N 22:58:11 41° NNE 22:58:11 41° NNE
Meteor 1-20 Rocket 4.3 22:53:42 10° NNW 22:59:08 65° W 22:59:08 65° W
Meteor 2-21 Rocket 4.3 22:59:01 74° SE 22:59:28 79° E 23:05:42 10° NNE
Cosmos 1570 Rocket 4.1 23:02:43 68° NW 23:02:43 68° NW 23:07:48 10° NNE
Cosmos 2333 Rocket 2.3 23:03:47 65° E 23:03:47 65° E 23:09:07 10° NE
Cosmos 2322 Rocket 2.1 23:03:59 86° WNW 23:03:59 86° WNW 23:09:39 10° NNE
Cosmos 2278 Rocket 3.8 22:59:19 10° NNW 23:04:20 30° NE 23:09:02 11° ESE
Lacrosse 5 2.4 23:05:57 51° ENE 23:05:57 51° ENE 23:09:49 10° ENE
Cosmos 2219 Rocket 2.8 23:05:42 43° E 23:05:42 43° E 23:10:34 10° NE
Cosmos 2034 Rocket 3.8 23:00:24 10° NNW 23:06:35 81° W 23:07:00 76° SW
Meteor 1-25 Rocket 4.3 23:05:44 10° NNW 23:11:03 62° W 23:11:03 62° W
USA 32 4.0 23:12:06 76° ENE 23:12:06 76° ENE 23:17:08 10° N
Cosmos 2221 3.9 23:13:29 31° ENE 23:13:29 31° ENE 23:16:34 10° NNE
CZ-2D R/B 4.3 23:10:45 10° NE 23:13:37 14° E 23:15:10 13° ESE
Geosat 4.1 23:20:32 70° NW 23:20:32 70° NW 23:25:02 10° NNW
Cosmos 1782 4.1 23:24:05 36° N 23:24:05 36° N 23:26:32 10° N
SL-16 R/B 2.9 23:22:58 41° W 23:24:03 46° NW 23:29:33 10° NNE
Cosmos 1634 Rocket 4.0 23:21:11 10° N 23:27:33 81° E 23:28:37 63° SSE
USA 238 DEB 4.2 23:26:04 10° NW 23:32:58 46° WSW 23:32:58 46° WSW
USA 238 4.2 23:26:10 10° NW 23:33:06 46° WSW 23:33:06 46° WSW
Cosmos 1844 Rocket 4.1 23:28:52 10° NW 23:32:08 24° W 23:32:08 24° W
IDEFIX/ARIANE 42P 4.0 23:34:27 10° NE 23:38:51 27° E 23:39:49 26° ESE
Resurs 1-4 Rocket 3.7 23:34:58 10° NE 23:39:11 23° E 23:40:30 21° ESE
Cosmos 158 Rocket 4.2 23:41:25 53° WNW 23:41:27 53° WNW 23:46:23 10° NNE
Cosmos 1943 Rocket 3.8 23:36:45 10° NNW 23:41:51 33° NE 23:46:57 10° ESE
Gbstr 26 Del rocket 4.4 23:49:29 28° E 23:49:29 28° E 23:51:30 10° ENE
NOSS 2-2 (E) 3.9 23:46:51 10° NW 23:51:00 73° NE 23:52:11 52° ESE
Cosmos 1766 Rocket 3.9 23:47:44 10° N 23:51:19 60° NNW 23:51:19 60° NNW
Cosmos 1743 3.9 23:51:01 10° N 23:53:28 40° N 23:53:28 40° N
